Regional Weather Roundup
Issued by NWS

Home | Current Version | Previous Version | Text Only | Print | Product List | Glossary Off
Versions: 1 2 3 4 5 6 7 8 9 10 11 12 13 14 15 16 17 18 19 20 21 22 23 24 25 26 27 28 29 30 31 32 33 34 35 36 37 38 39 40 41 42 43 44 45 46 47 48 49 50

000
ASUS43 KLOT 201700
RWRIL

ILLINOIS REGIONAL WEATHER ROUNDUP
NATIONAL WEATHER SERVICE CHICAGO/ROMEOVILLE IL
1200 PM CDT MON OCT 20 2014

NOTE: "FAIR" INDICATES FEW OR NO CLOUDS BELOW 12,000 FEET WITH NO
SIGNIFICANT WEATHER AND/OR OBSTRUCTIONS TO VISIBILITY.

* THESE STATIONS ARE NOT UNDER NWS QUALITY CONTROL. THEY ALSO MAY NOT
  REPORT WEATHER SUCH AS PRECIPITATION OR FOG.

ILZ001-002-007-009-015-016-024-201800-
NORTHWEST ILLINOIS

CITY           SKY/WX    TMP DP  RH WIND       PRES   REMARKS
MOLINE         SUNNY     63  44  50 N16G22    29.95R
STERLING*      SUNNY     64  46  52 NW16G22   29.91S
$$

ILZ003-004-008-010-011-017-018-201800-
NORTH CENTRAL ILLINOIS

CITY           SKY/WX    TMP DP  RH WIND       PRES   REMARKS
ROCKFORD       MOSUNNY   63  46  54 N13       29.91R
$$

ILZ005-006-012>014-019>023-201800-
NORTHEAST ILLINOIS

CITY           SKY/WX    TMP DP  RH WIND       PRES   REMARKS
CHICAGO-OHARE  MOSUNNY   60  46  59 NW8       29.85S
CHICAGO-MIDWAY MOSUNNY   61  48  62 NW8       29.85S
AURORA         SUNNY     63  47  55 NW9G18    29.86F
WAUKEGAN       MOSUNNY   59  47  64 NW7       29.84S
DUPAGE AIRPORT MOSUNNY   63  48  58 N8        29.85F
WHEELING       PTSUNNY   61  47  59 NW8       29.86R
NORTHERLY ISL    N/A     57  47  69 NE6         N/A
$$

LMZ740>746-201800-
SOUTHERN LAKE MICHIGAN

STATION/POSITION SKY/WX   TEMP    WIND        PRES    VSBY  WAVE
                          AIR SEA DIR/SP/G                  HT/PER
                          (F)     (DEG/KT/KT) (MB)    (MI)  (FT/S)
SOUTHERN BUOY              54 55  320/ 10/ 14 1010.2S         2/ 5
WAUKEGAN HARBOR            58     360/  7/ 12   N/A
HARRISON CRIB              54     320/  7/  8   N/A
BURNHAM HARBOR             58      50/  6/ 11   N/A
CALUMET HARBOR             58     340/  7/  9 1009.7R
MICHIGAN CITY              52     240/ 11/ 13   N/A
$$

ILZ025>027-034>036-040-047-049-050-058-095>099-201800-
WEST-CENTRAL ILLINOIS

CITY           SKY/WX    TMP DP  RH WIND       PRES   REMARKS
QUINCY         SUNNY     65  46  50 NW15      29.99S
$$

ILZ028>032-037-038-041>044-048-051>054-059>061-201800-
CENTRAL ILLINOIS

CITY           SKY/WX    TMP DP  RH WIND       PRES   REMARKS
DECATUR        SUNNY     66  49  54 NW9       29.92F
PEORIA           N/A     65  32  29 NW10G21   29.93R
SPRINGFIELD    SUNNY     68  47  46 N13G18    29.94F
TAYLORVILLE    NOT AVBL
$$

ILZ033-039-045-046-055>057-062-063-201800-
EAST-CENTRAL ILLINOIS

CITY           SKY/WX    TMP DP  RH WIND       PRES   REMARKS
CHAMPAIGN      SUNNY     65  47  52 NW15      29.90S
MATTOON        SUNNY     65  50  58 W14       29.91F
$$

ILZ079-100>102-201800-
SOUTHWEST ILLINOIS

CITY           SKY/WX    TMP DP  RH WIND       PRES   REMARKS
ALTON          SUNNY     68  52  56 S10       29.97F
CAHOKIA*       SUNNY     69  52  54 W8        29.98F
$$

ILZ064>066-069>071-074>076-080>082-084>086-088>090-092>094-201800-
SOUTH-CENTRAL ILLINOIS

CITY           SKY/WX    TMP DP  RH WIND       PRES   REMARKS
CARBONDALE     SUNNY     68  52  56 W13       29.98F
MARION         MOSUNNY   66  54  63 SW12      29.99F
MT. VERNON     SUNNY     66  54  63 W10G17    29.96F
$$

ILZ067-068-072-073-078-083-087-091-201800-
SOUTHEAST ILLINOIS

CITY           SKY/WX    TMP DP  RH WIND       PRES   REMARKS
LAWRENCEVILLE  MOSUNNY   65  51  60 W14       29.93F
$$

ABBREVIATIONS USED IN REMARKS
   TC - TEMPERATURE IN CELSIUS
  WCI - WIND CHILL INDEX
   HX - HEAT INDEX
  VSB - VISIBILITY
$$



USA.gov is the U.S. government's official web portal to all federal, state and local government web resources and services.